星链-35673(STARLINK-35673)

导读

STARLINK-35673是由美国发射的星链系列卫星,发射于2025年11月15日。作为SpaceX星链星座的组成部分,它承担着为全球提供高速宽带互联网接入的任务,填补偏远地区网络覆盖空白,助力全球互联互通,进一步完善了星链低轨卫星通信网络的布局,增强星座整体服务能力。

基本信息
目录编号:
66492
目录名称:
STARLINK-35673
国际标识:
2025-263H
轨道中心:
EARTH
卫星名称:
星链-35673
卫星全名:
星链-35673(STARLINK-35673)
卫星状态:
在轨 (已飞行294 天)
发射日期:
2025-11-15 UTC
国别 :
美国 (US)
星等 :
--
轨道信息
数据来源 国际轨道数据
星历时间: 2026-09-05T20:43:00+0800
4小时前
查看轨道信息
半长轴: 6861.173km
偏心率: 0.000189
轨道倾角: 43.003°
近地点辐角 267.221°
升交点赤经 55.012°
平近点角 92.843°
近地点: 481.739km
远地点: 484.333km
周期: 94.266分钟
每日圈数: 15.275846
详细信息
固有亮度:
5
最大亮度:
2.5
卫星平台:
Starlink V1.0
覆盖范围:
全球
运营商:
太空探索技术公司
运营商所在国:
美国
制造商(研发单位):
太空探索技术公司
制造商所在国:
美国
使用方式:
暂无
卫星简介
Starlink 计划是 SpaceX 推出的全球卫星互联网项目,通过发射低轨道卫星,为全球尤其是偏远地区提供高速、低延迟的互联网服务。自 2019 年起,Starlink 已部署数千颗卫星,旨在缩小全球数字鸿沟,推动互联网普及。该项目还为军事、航空等行业提供通信支持,带来广泛经济效益。
2D轨道图
3D轨道图
轨道高度分析图
轨道倾角分析图
轨道综合分析图
查看轨道综合分析图
交会数据列表
事件ID 空间交会对象 最接近时刻(TCA) 交会距离 交会风险概率(CRP) 交会风险指数(CRI) 操作
CDM_260907-155605-734006-649221
2026-09-07T
15:56:01+0000
1.006 km
极远距离
1.699726E-5 中风险 0.6
CDM_260907-142105-734006-649221
2026-09-07T
14:21:52+0000
1.081 km
极远距离
1.323165E-5 中风险 0.57
CDM_260907-173005-734006-649221
2026-09-07T
17:30:10+0000
2.652 km
极远距离
1.099249E-6 低风险 0.36
CDM_260907-124705-734006-649221
2026-09-07T
12:47:43+0000
2.675 km
极远距离
1.085572E-6 低风险 0.36